Home > Time Zones > World Clock > Weather > Peru > Ica > Past weeks

Flag for Peru Weather past 2 weeks in Ica, Ica, Peru

Now
70 °F

Overcast.


Feels Like: 70 °F
Forecast: 62 / 83 °F
Wind: 12 mph from Southwest

Location: Pisco Airport

Current Time: May 28, 2015 at 10:02:24 PM

Latest Report: May 28, 2015 at 9:00 PM


Visibility: N/A

Pressure: 29.95 "Hg

Humidity: 78%

Dew point: 63 °F

Location of IcaLocation

Historic Weather in Ica — Graph

°F

Ica temperature yesterday

Maximum temperature yesterday: 73 °F (at 11:00 AM)
Minimum temperature yesterday: 63 °F (at 6:00 AM)
Average temperature yesterday: 68 °F

Past Weeks' High & Low Weather Summary

 TemperatureHumidityPressure
High77 °F (May 17, 3:00 PM)94% (May 19, 6:00 AM)30.01 "Hg (May 19, 6:00 AM)
Low55 °F (May 24, 5:00 AM)54% (May 23, 3:00 PM)29.80 "Hg (May 15, 4:00 PM)
Average69 °F77%29.92 "Hg
* Reported May 13 8:00 PM — May 28 8:00 PM, Ica, Weather by CustomWeather, © 2015

Note: Actual official high and low records may vary slightly from our data, if they occured in-between our weather recording intervals... More about our weather records

Advertising

Ica weather history for previous 24 hours

 ConditionsComfort  
Time TempWeatherWind HumidityBarometerVisibility
8:00 PM
Thu, May 28
70 °FOvercast.12 mph78%29.95 "HgN/A
7:00 PM72 °FOvercast.8 mph73%29.92 "HgN/A
6:00 PM72 °FOvercast.9 mph73%29.92 "HgN/A
5:00 PM72 °FOvercast.10 mph73%29.89 "HgN/A
4:00 PM72 °FOvercast.7 mph73%29.89 "HgN/A
3:00 PM72 °FOvercast.5 mph73%29.89 "HgN/A
2:00 PM72 °FOvercast.6 mph73%29.92 "HgN/A
1:00 PM72 °FMore clouds than sun.7 mph73%29.92 "HgN/A
12:00 PM70 °FMore clouds than sun.6 mph78%29.95 "Hg4 mi
11:00 AM70 °FMore clouds than sun.5 mph78%29.98 "Hg4 mi
10:00 AM70 °FMore clouds than sun.5 mph78%29.98 "Hg4 mi
9:00 AM70 °FOvercast.6 mph83%29.98 "Hg4 mi
8:00 AM70 °FMore clouds than sun.5 mph78%29.95 "Hg4 mi
7:00 AM70 °FMore clouds than sun.2 mph78%29.95 "Hg4 mi
6:00 AM68 °FOvercast.3 mph83%29.92 "Hg5 mi
5:00 AM68 °FOvercast.3 mph83%29.92 "HgN/A
4:00 AM68 °FOvercast.8 mph83%29.89 "HgN/A
3:00 AM68 °FOvercast.9 mph83%29.92 "HgN/A
2:00 AM68 °FOvercast.7 mph83%29.92 "HgN/A
1:00 AM68 °FOvercast.7 mph83%29.92 "HgN/A
12:00 AM68 °FOvercast.7 mph83%29.92 "HgN/A
11:00 PM
Wed, May 27
70 °FOvercast.5 mph78%29.95 "HgN/A
10:00 PM68 °FOvercast.3 mph83%29.95 "HgN/A
Weather by CustomWeather, © 2015

See weather overviewHow to use our weather pages